,,Stat6,,Stat2,,Stat8,,Stat9,,Stat10,,Wind1,,Wind1,
time,status,PA1M_AVG,status,PR1M_SUM,status,RH1M_AVG,status,SR1M_AVG,status,TA1M_AVG,status,W1dAve1m,status,W1sAve1m,
2004-10-28, 00:00:00,VALID,917.076,VALID,0,VALID,94.367,VALID,-0.0169808,VALID,20.3879,VALID,37,VALID,1.99028,
2004-10-28, 00:01:00,VALID,917.055,VALID,0,VALID,94.5069,VALID,-0.0679233,VALID,20.3849,VALID,28,VALID,2.11955,
2004-10-28, 00:02:00,VALID,917.049,VALID,0,VALID,94.3963,VALID,-0.0169808,VALID,20.382,VALID,44,VALID,1.7444,
2004-10-28, 00:03:00,VALID,917.03,VALID,0,VALID,93.8902,VALID,-0.0509425,VALID,20.3653,VALID,72,VALID,1.8628,
2004-10-28, 00:04:00,VALID,917.014,VALID,0,VALID,93.5888,VALID,-0.0849042,VALID,20.3951,VALID,68,VALID,1.75577,
2004-10-28, 00:05:00,VALID,916.969,VALID,0,VALID,93.6448,VALID,-0.0509425,VALID,20.3919,VALID,47,VALID,2.25182,
2004-10-28, 00:06:00,VALID,916.974,VALID,0,VALID,92.9479,VALID,-0.0339617,VALID,20.3919,VALID,61,VALID,3.16642,
2004-10-28, 00:07:00,VALID,916.965,VALID,0,VALID,92.1099,VALID,-0.0679233,VALID,20.4307,VALID,64,VALID,2.80505,
2004-10-28, 00:08:00,VALID,916.92,VALID,0,VALID,91.1957,VALID,-0.101885,VALID,20.4597,VALID,72,VALID,3.16313,
2004-10-28, 00:09:00,VALID,916.92,VALID,0,VALID,90.5993,VALID,-0.101885,VALID,20.5276,VALID,72,VALID,3.50999,
2004-10-28, 00:10:00,VALID,916.918,VALID,0,VALID,90.5014,VALID,-0.0679233,VALID,20.5892,VALID,64,VALID,3.09299,
2004-10-28, 00:11:00,VALID,916.87,VALID,0,VALID,90.6718,VALID,-0.0509425,VALID,20.5924,VALID,45,VALID,3.03754,
2004-10-28, 00:12:00,VALID,916.871,VALID,0,VALID,90.6412,VALID,-0.0509425,VALID,20.5887,VALID,90,VALID,1.80214,
2004-10-28, 00:13:00,VALID,916.84,VALID,0,VALID,90.3907,VALID,-0.0679233,VALID,20.5564,VALID,95,VALID,1.61889,
2004-10-28, 00:14:00,VALID,916.813,VALID,0,VALID,90.125,VALID,-0.0509425,VALID,20.5373,VALID,53,VALID,1.82973,
2004-10-28, 00:15:00,VALID,916.81,VALID,0,VALID,89.5413,VALID,-0.0509425,VALID,20.54,VALID,63,VALID,3.69566,
2004-10-28, 00:16:00,VALID,916.842,VALID,0,VALID,89.081,VALID,-0.0339617,VALID,20.5747,VALID,37,VALID,2.05283,
2004-10-28, 00:17:00,VALID,916.887,VALID,0,VALID,89.4205,VALID,-0.0339617,VALID,20.5906,VALID,57,VALID,0.774771,
2004-10-28, 00:18:00,VALID,916.888,VALID,0,VALID,89.507,VALID,-0.0169808,VALID,20.5847,VALID,68,VALID,2.0435,
2004-10-28, 00:19:00,VALID,916.88,VALID,0,VALID,89.3111,VALID,-0.0169808,VALID,20.5752,VALID,80,VALID,2.7314,
2004-10-28, 00:20:00,VALID,916.909,VALID,0,VALID,89.1687,VALID,-0.0169808,VALID,20.5489,VALID,63,VALID,2.97618,
2004-10-28, 00:21:00,VALID,916.909,VALID,0,VALID,89.1357,VALID,0,VALID,20.5265,VALID,55,VALID,2.36357,
2004-10-28, 00:22:00,VALID,916.923,VALID,0,VALID,89.9953,VALID,-0.0169808,VALID,20.5072,VALID,87,VALID,0.95434,
2004-10-28, 00:23:00,VALID,916.926,VALID,0,VALID,90.1135,VALID,-0.0169808,VALID,20.459,VALID,133,VALID,1.47747,
2004-10-28, 00:24:00,VALID,916.918,VALID,0,VALID,90.4073,VALID,0,VALID,20.3968,VALID,38,VALID,2.2125,
2004-10-28, 00:25:00,VALID,916.948,VALID,0,VALID,90.7366,VALID,-0.0339617,VALID,20.3658,VALID,106,VALID,0.674419,
2004-10-28, 00:26:00,VALID,916.958,VALID,0,VALID,91.1423,VALID,-0.0339617,VALID,20.3039,VALID,72,VALID,1.13472,
2004-10-28, 00:27:00,VALID,916.973,VALID,0,VALID,91.4907,VALID,-0.0849042,VALID,20.2458,VALID,86,VALID,1.23223,
2004-10-28, 00:28:00,VALID,916.979,VALID,0,VALID,91.8683,VALID,-0.0339617,VALID,20.1939,VALID,74,VALID,1.48366,
2004-10-28, 00:29:00,VALID,916.956,VALID,0,VALID,92.0934,VALID,-0.0849042,VALID,20.1457,VALID,97,VALID,1.81901,
2004-10-28, 00:30:00,VALID,916.969,VALID,0,VALID,92.5563,VALID,-0.0169808,VALID,20.1069,VALID,88,VALID,1.05796,
2004-10-28, 00:31:00,VALID,916.954,VALID,0,VALID,92.9314,VALID,-0.0339617,VALID,20.0687,VALID,1,VALID,0.339453,
2004-10-28, 00:32:00,VALID,916.946,VALID,0,VALID,93.173,VALID,-0.0339617,VALID,20.0331,VALID,359,VALID,0.175686,
2004-10-28, 00:33:00,VALID,916.955,VALID,0,VALID,93.2862,VALID,-0.0169808,VALID,19.9971,VALID,244,VALID,0.329055,
2004-10-28, 00:34:00,VALID,916.951,VALID,0,VALID,93.7338,VALID,-0.0339617,VALID,19.9849,VALID,229,VALID,0.00672238,
2004-10-28, 00:35:00,VALID,916.963,VALID,0,VALID,94.0212,VALID,-0.0509425,VALID,19.9467,VALID,238,VALID,0.414236,
2004-10-28, 00:36:00,VALID,916.951,VALID,0,VALID,94.4281,VALID,-0.0679233,VALID,19.8846,VALID,315,VALID,0.731179,
2004-10-28, 00:37:00,VALID,916.945,VALID,0,VALID,94.3785,VALID,-0.0509425,VALID,19.8418,VALID,322,VALID,0.978906,
2004-10-28, 00:38:00,VALID,916.926,VALID,0,VALID,93.997,VALID,-0.0509425,VALID,19.8361,VALID,8,VALID,1.16806,
2004-10-28, 00:39:00,VALID,916.923,VALID,0,VALID,93.8775,VALID,-0.0509425,VALID,19.8388,VALID,151,VALID,0.454942,
2004-10-28, 00:40:00,VALID,916.91,VALID,0,VALID,93.9347,VALID,-0.0679233,VALID,19.8257,VALID,183,VALID,0.427284,
2004-10-28, 00:41:00,VALID,916.888,VALID,0,VALID,93.7173,VALID,-0.0679233,VALID,19.8463,VALID,253,VALID,0.519097,
2004-10-28, 00:42:00,VALID,916.892,VALID,0,VALID,93.7338,VALID,-0.0509425,VALID,19.8453,VALID,213,VALID,0.345881,
2004-10-28, 00:43:00,VALID,916.883,VALID,0,VALID,94.3925,VALID,-0.0339617,VALID,19.8525,VALID,150,VALID,1.20778,
2004-10-28, 00:44:00,VALID,916.884,VALID,0,VALID,94.5235,VALID,-0.0339617,VALID,19.8071,VALID,144,VALID,1.46719,
2004-10-28, 00:45:00,VALID,916.883,VALID,0,VALID,94.4268,VALID,0,VALID,19.7872,VALID,101,VALID,0.837891,
2004-10-28, 00:46:00,VALID,916.859,VALID,0,VALID,94.6214,VALID,0.0339617,VALID,19.7671,VALID,156,VALID,1.28234,
2004-10-28, 00:47:00,VALID,916.849,VALID,0,VALID,94.5362,VALID,0.0509425,VALID,19.7509,VALID,107,VALID,1.37176,
2004-10-28, 00:48:00,VALID,916.834,VALID,0,VALID,94.5349,VALID,0.0169808,VALID,19.7479,VALID,64,VALID,1.99609,
2004-10-28, 00:49:00,VALID,916.799,VALID,0,VALID,94.3124,VALID,0.0509425,VALID,19.7646,VALID,102,VALID,1.89862,
2004-10-28, 00:50:00,VALID,916.772,VALID,0,VALID,94.348,VALID,0.0169808,VALID,19.7641,VALID,119,VALID,1.40777,
2004-10-28, 00:51:00,VALID,916.742,VALID,0,VALID,94.4777,VALID,0.0679233,VALID,19.7442,VALID,105,VALID,1.51836,
2004-10-28, 00:52:00,VALID,916.714,VALID,0,VALID,94.6265,VALID,0.0339617,VALID,19.7253,VALID,117,VALID,1.77544,
2004-10-28, 00:53:00,VALID,916.69,VALID,0,VALID,94.8286,VALID,0,VALID,19.699,VALID,118,VALID,1.49944,
2004-10-28, 00:54:00,VALID,916.65,VALID,0,VALID,94.8159,VALID,0.0509425,VALID,19.693,VALID,120,VALID,1.67987,
2004-10-28, 00:55:00,VALID,916.616,VALID,0.2,VALID,95.0575,VALID,0.0849042,VALID,19.6863,VALID,120,VALID,1.6317,
2004-10-28, 00:56:00,VALID,916.598,VALID,0,VALID,95.2165,VALID,0.0509425,VALID,19.6476,VALID,117,VALID,2.03944,
2004-10-28, 00:57:00,VALID,916.576,VALID,0,VALID,95.3983,VALID,0.0169808,VALID,19.6155,VALID,134,VALID,2.11161,
2004-10-28, 00:58:00,VALID,916.557,VALID,0,VALID,95.2851,VALID,0.0849042,VALID,19.5989,VALID,99,VALID,2.09775,
2004-10-28, 00:59:00,VALID,916.546,VALID,0,VALID,95.0474,VALID,0.0169808,VALID,19.6123,VALID,104,VALID,2.47366,
2004-10-28, 01:00:00,VALID,916.529,VALID,0.2,VALID,95.0791,VALID,0,VALID,19.6227,VALID,90,VALID,2.5559,
2004-10-28, 01:01:00,VALID,916.51,VALID,0,VALID,94.8655,VALID,-0.0509425,VALID,19.5904,VALID,101,VALID,2.33612,
2004-10-28, 01:02:00,VALID,916.476,VALID,0,VALID,95.13,VALID,-0.0849042,VALID,19.5877,VALID,71,VALID,1.90498,
2004-10-28, 01:03:00,VALID,916.487,VALID,0.2,VALID,95.1898,VALID,-0.0509425,VALID,19.5589,VALID,105,VALID,2.21309,
2004-10-28, 01:04:00,VALID,916.497,VALID,0,VALID,95.7327,VALID,-0.0509425,VALID,19.5167,VALID,102,VALID,1.53801,
2004-10-28, 01:05:00,VALID,916.488,VALID,0,VALID,95.8447,VALID,-0.0509425,VALID,19.4618,VALID,97,VALID,1.95916,
2004-10-28, 01:06:00,VALID,916.494,VALID,0.2,VALID,95.7976,VALID,-0.0679233,VALID,19.4168,VALID,115,VALID,1.96671,
2004-10-28, 01:07:00,VALID,916.497,VALID,0,VALID,95.9604,VALID,-0.0679233,VALID,19.3912,VALID,111,VALID,1.60483,
2004-10-28, 01:08:00,VALID,916.487,VALID,0,VALID,95.9731,VALID,-0.0339617,VALID,19.3592,VALID,88,VALID,2.64626,
2004-10-28, 01:09:00,VALID,916.487,VALID,0.2,VALID,96.0913,VALID,-0.0849042,VALID,19.343,VALID,74,VALID,1.95185,
2004-10-28, 01:10:00,VALID,916.481,VALID,0,VALID,96.0621,VALID,-0.0679233,VALID,19.3174,VALID,70,VALID,1.79634,
2004-10-28, 01:11:00,VALID,916.461,VALID,0,VALID,96.4359,VALID,-0.0849042,VALID,19.2782,VALID,62,VALID,1.40742,
2004-10-28, 01:12:00,VALID,916.474,VALID,0,VALID,96.4309,VALID,-0.0679233,VALID,19.2427,VALID,92,VALID,1.15909,
2004-10-28, 01:13:00,VALID,916.471,VALID,0.2,VALID,96.6191,VALID,-0.0679233,VALID,19.2138,VALID,127,VALID,1.36101,
2004-10-28, 01:14:00,VALID,916.462,VALID,0,VALID,96.6712,VALID,-0.0849042,VALID,19.1908,VALID,134,VALID,0.987153,
2004-10-28, 01:15:00,VALID,916.458,VALID,0,VALID,96.6852,VALID,-0.0339617,VALID,19.1711,VALID,119,VALID,1.54249,
2004-10-28, 01:16:00,VALID,916.448,VALID,0,VALID,96.6699,VALID,0.0169808,VALID,19.1545,VALID,89,VALID,1.67604,
2004-10-28, 01:17:00,VALID,916.393,VALID,0.2,VALID,96.7653,VALID,0,VALID,19.1577,VALID,169,VALID,1.17397,
2004-10-28, 01:18:00,VALID,916.365,VALID,0,VALID,97.0056,VALID,0,VALID,19.1518,VALID,97,VALID,0.763338,
2004-10-28, 01:19:00,VALID,916.37,VALID,0,VALID,97.2142,VALID,0,VALID,19.1386,VALID,42,VALID,0.434775,
2004-10-28, 01:20:00,VALID,916.34,VALID,0.2,VALID,97.4545,VALID,0.0169808,VALID,19.1225,VALID,312,VALID,0.483842,
2004-10-28, 01:21:00,VALID,916.346,VALID,0,VALID,97.5969,VALID,0,VALID,19.0932,VALID,198,VALID,0.288021,
2004-10-28, 01:22:00,VALID,916.351,VALID,0,VALID,97.8754,VALID,0,VALID,19.0837,VALID,42,VALID,0.480469,
2004-10-28, 01:23:00,VALID,916.327,VALID,0,VALID,97.8996,VALID,0,VALID,19.0547,VALID,336,VALID,0.67294,
2004-10-28, 01:24:00,VALID,916.285,VALID,0.2,VALID,97.6313,VALID,0,VALID,19.0353,VALID,294,VALID,0.0987723,
2004-10-28, 01:25:00,VALID,916.261,VALID,0,VALID,97.8296,VALID,-0.0169808,VALID,19.045,VALID,283,VALID,0.344113,
2004-10-28, 01:26:00,VALID,916.248,VALID,0,VALID,97.8322,VALID,0,VALID,19.0482,VALID,112,VALID,0.838368,
2004-10-28, 01:27:00,VALID,916.21,VALID,0,VALID,98.0865,VALID,0,VALID,19.0388,VALID,224,VALID,0.327195,
2004-10-28, 01:28:00,VALID,916.193,VALID,0,VALID,98.2569,VALID,0,VALID,19.0122,VALID,227,VALID,0.0671503,
2004-10-28, 01:29:00,VALID,916.176,VALID,0,VALID,98.3929,VALID,0,VALID,18.9896,VALID,211,VALID,0.427689,
2004-10-28, 01:30:00,VALID,916.173,VALID,0,VALID,98.5455,VALID,0,VALID,18.9928,VALID,225,VALID,0.378162,
2004-10-28, 01:31:00,VALID,916.129,VALID,0,VALID,98.7706,VALID,0.0169808,VALID,18.9998,VALID,252,VALID,0.514258,
2004-10-28, 01:32:00,VALID,916.112,VALID,0,VALID,98.7223,VALID,0,VALID,18.9707,VALID,250,VALID,0.172433,
2004-10-28, 01:33:00,VALID,916.115,VALID,0,VALID,98.5659,VALID,-0.0169808,VALID,18.9354,VALID,245,VALID,0,
2004-10-28, 01:34:00,VALID,916.082,VALID,0,VALID,98.4998,VALID,-0.0849042,VALID,18.9267,VALID,244,VALID,0.27397,
2004-10-28, 01:35:00,VALID,916.029,VALID,0,VALID,98.5023,VALID,-0.101885,VALID,18.9364,VALID,307,VALID,0.537946,
2004-10-28, 01:36:00,VALID,916.026,VALID,0.2,VALID,98.5786,VALID,-0.101885,VALID,18.9431,VALID,257,VALID,0.506611,
2004-10-28, 01:37:00,VALID,916.008,VALID,0,VALID,98.7312,VALID,-0.101885,VALID,18.9304,VALID,224,VALID,0.577951,
2004-10-28, 01:38:00,VALID,916.012,VALID,0,VALID,98.5379,VALID,-0.101885,VALID,18.9143,VALID,214,VALID,0.640625,
2004-10-28, 01:39:00,VALID,916.001,VALID,0,VALID,98.4514,VALID,-0.101885,VALID,18.8877,VALID,213,VALID,0.4288,
2004-10-28, 01:40:00,VALID,916.001,VALID,0,VALID,98.3243,VALID,-0.101885,VALID,18.8884,VALID,166,VALID,0.830469,
2004-10-28, 01:41:00,VALID,915.996,VALID,0,VALID,98.1475,VALID,-0.101885,VALID,18.8755,VALID,209,VALID,0.627362,
2004-10-28, 01:42:00,VALID,915.989,VALID,0,VALID,98.07,VALID,-0.101885,VALID,18.885,VALID,221,VALID,0.130996,
2004-10-28, 01:43:00,VALID,915.974,VALID,0,VALID,98.0623,VALID,-0.101885,VALID,18.8919,VALID,216,VALID,0.469141,
2004-10-28, 01:44:00,VALID,915.957,VALID,0,VALID,98.07,VALID,-0.101885,VALID,18.8884,VALID,207,VALID,0.675409,
2004-10-28, 01:45:00,VALID,915.964,VALID,0,VALID,98.0585,VALID,-0.0339617,VALID,18.891,VALID,186,VALID,0.481148,
2004-10-28, 01:46:00,VALID,915.96,VALID,0,VALID,97.7381,VALID,0.0169808,VALID,18.884,VALID,144,VALID,1.04444,
2004-10-28, 01:47:00,VALID,915.951,VALID,0,VALID,97.6719,VALID,-0.0339617,VALID,18.8935,VALID,191,VALID,0.957031,
2004-10-28, 01:48:00,VALID,915.945,VALID,0,VALID,97.5995,VALID,0,VALID,18.9128,VALID,167,VALID,0.802326,
2004-10-28, 01:49:00,VALID,915.945,VALID,0,VALID,97.6719,VALID,0,VALID,18.9094,VALID,159,VALID,0.252477,
2004-10-28, 01:50:00,VALID,915.94,VALID,0,VALID,97.6452,VALID,0,VALID,18.9061,VALID,143,VALID,0.313388,
2004-10-28, 01:51:00,VALID,915.943,VALID,0,VALID,97.588,VALID,0,VALID,18.8835,VALID,143,VALID,0,
2004-10-28, 01:52:00,VALID,915.955,VALID,0,VALID,97.6821,VALID,0,VALID,18.8771,VALID,143,VALID,0,
2004-10-28, 01:53:00,VALID,915.948,VALID,0,VALID,97.6249,VALID,0,VALID,18.8838,VALID,143,VALID,0.243963,
2004-10-28, 01:54:00,VALID,915.945,VALID,0,VALID,97.7508,VALID,0,VALID,18.8676,VALID,142,VALID,0.046875,
2004-10-28, 01:55:00,VALID,915.926,VALID,0,VALID,97.4087,VALID,0,VALID,18.858,VALID,138,VALID,0.885901,
2004-10-28, 01:56:00,VALID,915.9,VALID,0,VALID,97.2116,VALID,0.0169808,VALID,18.8676,VALID,142,VALID,0.268714,
2004-10-28, 01:57:00,VALID,915.877,VALID,0,VALID,97.1811,VALID,0,VALID,18.8642,VALID,148,VALID,0.295351,
2004-10-28, 01:58:00,VALID,915.854,VALID,0,VALID,97.2231,VALID,0,VALID,18.8806,VALID,148,VALID,0.262386,
2004-10-28, 01:59:00,VALID,915.867,VALID,0,VALID,97.0705,VALID,0.0169808,VALID,18.8706,VALID,154,VALID,0.400586,
2004-10-28, 02:00:00,VALID,915.862,VALID,0,VALID,96.6051,VALID,-0.0169808,VALID,18.878,VALID,150,VALID,1.18332,
2004-10-28, 02:01:00,VALID,915.852,VALID,0,VALID,96.1931,VALID,-0.0679233,VALID,18.917,VALID,155,VALID,0.695685,
2004-10-28, 02:02:00,VALID,915.833,VALID,0,VALID,95.9108,VALID,-0.0849042,VALID,18.9558,VALID,161,VALID,0.520579,
2004-10-28, 02:03:00,VALID,915.807,VALID,0,VALID,95.9298,VALID,-0.0169808,VALID,18.9684,VALID,161,VALID,0.241997,
2004-10-28, 02:04:00,VALID,915.784,VALID,0,VALID,96.0265,VALID,-0.0339617,VALID,18.9881,VALID,183,VALID,0.378374,
2004-10-28, 02:05:00,VALID,915.776,VALID,0,VALID,96.0023,VALID,-0.0679233,VALID,18.9945,VALID,185,VALID,0.306021,
2004-10-28, 02:06:00,VALID,915.766,VALID,0,VALID,95.9527,VALID,-0.0849042,VALID,18.9915,VALID,186,VALID,0.197599,
2004-10-28, 02:07:00,VALID,915.76,VALID,0,VALID,95.9057,VALID,-0.0849042,VALID,18.9853,VALID,186,VALID,0.0256177,
2004-10-28, 02:08:00,VALID,915.769,VALID,0,VALID,96.0328,VALID,-0.0679233,VALID,18.956,VALID,186,VALID,0,
2004-10-28, 02:09:00,VALID,915.772,VALID,0,VALID,96.2477,VALID,-0.101885,VALID,18.9592,VALID,186,VALID,0,
2004-10-28, 02:10:00,VALID,915.783,VALID,0,VALID,96.3101,VALID,-0.0509425,VALID,18.9399,VALID,175,VALID,0.395461,
2004-10-28, 02:11:00,VALID,915.799,VALID,0,VALID,96.2605,VALID,-0.0679233,VALID,18.9043,VALID,157,VALID,0.839844,
2004-10-28, 02:12:00,VALID,915.803,VALID,0,VALID,96.1448,VALID,-0.101885,VALID,18.885,VALID,157,VALID,0.741587,
2004-10-28, 02:13:00,VALID,915.779,VALID,0,VALID,96.0417,VALID,-0.0849042,VALID,18.888,VALID,173,VALID,0.42024,
2004-10-28, 02:14:00,VALID,915.76,VALID,0,VALID,95.9171,VALID,-0.0679233,VALID,18.8979,VALID,177,VALID,0.266555,
2004-10-28, 02:15:00,VALID,915.733,VALID,0,VALID,95.7836,VALID,-0.0509425,VALID,18.9202,VALID,177,VALID,0.428354,
2004-10-28, 02:16:00,VALID,915.704,VALID,0,VALID,95.7493,VALID,-0.0849042,VALID,18.924,VALID,182,VALID,0.717035,
2004-10-28, 02:17:00,VALID,915.684,VALID,0,VALID,95.6997,VALID,-0.0679233,VALID,18.9366,VALID,194,VALID,0.948742,
2004-10-28, 02:18:00,VALID,915.667,VALID,0,VALID,95.5954,VALID,-0.0849042,VALID,18.9622,VALID,200,VALID,0.813388,
2004-10-28, 02:19:00,VALID,915.659,VALID,0,VALID,95.481,VALID,-0.101885,VALID,18.9816,VALID,169,VALID,0.674762,
2004-10-28, 02:20:00,VALID,915.639,VALID,0,VALID,95.3017,VALID,-0.101885,VALID,18.9915,VALID,169,VALID,0.915264,
2004-10-28, 02:21:00,VALID,915.638,VALID,0,VALID,95.088,VALID,-0.0679233,VALID,19.0042,VALID,188,VALID,0.872582,
2004-10-28, 02:22:00,VALID,915.636,VALID,0,VALID,95.0257,VALID,-0.0509425,VALID,19.0335,VALID,181,VALID,0.774771,
2004-10-28, 02:23:00,VALID,915.625,VALID,0,VALID,95.0092,VALID,-0.0509425,VALID,19.0464,VALID,178,VALID,0.718178,
2004-10-28, 02:24:00,VALID,915.624,VALID,0,VALID,94.7549,VALID,-0.101885,VALID,19.0563,VALID,174,VALID,0.653274,
2004-10-28, 02:25:00,VALID,915.62,VALID,0,VALID,94.8744,VALID,-0.0849042,VALID,19.0693,VALID,169,VALID,0.79859,
2004-10-28, 02:26:00,VALID,915.607,VALID,0,VALID,94.8363,VALID,-0.0849042,VALID,19.0792,VALID,176,VALID,1.28427,
2004-10-28, 02:27:00,VALID,915.596,VALID,0,VALID,94.821,VALID,-0.0849042,VALID,19.0529,VALID,176,VALID,1.48928,
2004-10-28, 02:28:00,VALID,915.621,VALID,0,VALID,94.8007,VALID,-0.0509425,VALID,19.0429,VALID,172,VALID,1.62109,
2004-10-28, 02:29:00,VALID,915.621,VALID,0,VALID,95.0791,VALID,-0.101885,VALID,19.03,VALID,165,VALID,0.892442,
2004-10-28, 02:30:00,VALID,915.615,VALID,0,VALID,95.0207,VALID,-0.0849042,VALID,19.0109,VALID,168,VALID,1.37995,
2004-10-28, 02:31:00,VALID,915.616,VALID,0,VALID,95.1059,VALID,-0.0679233,VALID,18.9977,VALID,161,VALID,1.19727,
2004-10-28, 02:32:00,VALID,915.595,VALID,0,VALID,95.1834,VALID,-0.0679233,VALID,18.9948,VALID,155,VALID,1.30677,
2004-10-28, 02:33:00,VALID,915.575,VALID,0,VALID,95.041,VALID,-0.0509425,VALID,18.998,VALID,156,VALID,1.38104,
2004-10-28, 02:34:00,VALID,915.581,VALID,0,VALID,94.5896,VALID,-0.0849042,VALID,19.0208,VALID,153,VALID,1.76602,
2004-10-28, 02:35:00,VALID,915.577,VALID,0,VALID,94.4026,VALID,-0.0679233,VALID,19.0757,VALID,156,VALID,1.82757,
2004-10-28, 02:36:00,VALID,915.587,VALID,0,VALID,94.0771,VALID,-0.101885,VALID,19.1078,VALID,153,VALID,1.71802,
2004-10-28, 02:37:00,VALID,915.584,VALID,0,VALID,94.0326,VALID,-0.0339617,VALID,19.1366,VALID,148,VALID,1.5307,
2004-10-28, 02:38:00,VALID,915.576,VALID,0,VALID,93.7783,VALID,-0.0849042,VALID,19.1497,VALID,145,VALID,1.72117,
2004-10-28, 02:39:00,VALID,915.569,VALID,0,VALID,93.7643,VALID,-0.0849042,VALID,19.1855,VALID,136,VALID,1.48783,
2004-10-28, 02:40:00,VALID,915.549,VALID,0,VALID,93.5596,VALID,-0.101885,VALID,19.195,VALID,140,VALID,1.24945,
2004-10-28, 02:41:00,VALID,915.549,VALID,0,VALID,93.585,VALID,-0.0679233,VALID,19.2111,VALID,146,VALID,1.34301,
2004-10-28, 02:42:00,VALID,915.529,VALID,0,VALID,93.7007,VALID,-0.0679233,VALID,19.2046,VALID,145,VALID,1.40816,
2004-10-28, 02:43:00,VALID,915.503,VALID,0,VALID,93.7109,VALID,-0.0679233,VALID,19.1952,VALID,145,VALID,1.32603,
2004-10-28, 02:44:00,VALID,915.492,VALID,0,VALID,93.5685,VALID,-0.0849042,VALID,19.2051,VALID,142,VALID,1.69017,
2004-10-28, 02:45:00,VALID,915.479,VALID,0,VALID,93.4591,VALID,-0.0509425,VALID,19.2081,VALID,150,VALID,1.40234,
2004-10-28, 02:46:00,VALID,915.451,VALID,0,VALID,93.1984,VALID,-0.101885,VALID,19.2243,VALID,129,VALID,1.33079,
2004-10-28, 02:47:00,VALID,915.417,VALID,0,VALID,92.6834,VALID,-0.118866,VALID,19.2859,VALID,138,VALID,1.08956,
2004-10-28, 02:48:00,VALID,915.387,VALID,0,VALID,92.6148,VALID,-0.0849042,VALID,19.3375,VALID,154,VALID,0.62173,
2004-10-28, 02:49:00,VALID,915.387,VALID,0,VALID,92.7458,VALID,-0.0849042,VALID,19.337,VALID,131,VALID,1.03487,
2004-10-28, 02:50:00,VALID,915.388,VALID,0,VALID,93.0052,VALID,-0.0679233,VALID,19.3144,VALID,138,VALID,1.21596,
2004-10-28, 02:51:00,VALID,915.391,VALID,0,VALID,92.9746,VALID,-0.0509425,VALID,19.2762,VALID,156,VALID,1.08031,
2004-10-28, 02:52:00,VALID,915.397,VALID,0,VALID,92.9518,VALID,-0.118866,VALID,19.2568,VALID,165,VALID,1.00426,
2004-10-28, 02:53:00,VALID,915.405,VALID,0,VALID,93.0815,VALID,-0.0849042,VALID,19.2792,VALID,100,VALID,0.752907,
2004-10-28, 02:54:00,VALID,915.405,VALID,0,VALID,93.4858,VALID,-0.0679233,VALID,19.2757,VALID,62,VALID,0.634266,
2004-10-28, 02:55:00,VALID,915.417,VALID,0,VALID,94.0034,VALID,-0.0679233,VALID,19.2143,VALID,57,VALID,1.01772,
2004-10-28, 02:56:00,VALID,915.407,VALID,0,VALID,94.4561,VALID,-0.101885,VALID,19.1011,VALID,86,VALID,0.917696,
2004-10-28, 02:57:00,VALID,915.399,VALID,0,VALID,94.821,VALID,-0.0509425,VALID,19.0268,VALID,87,VALID,0.883929,
2004-10-28, 02:58:00,VALID,915.407,VALID,0,VALID,94.7002,VALID,-0.0509425,VALID,18.9915,VALID,113,VALID,0.973958,
2004-10-28, 02:59:00,VALID,915.396,VALID,0,VALID,94.7523,VALID,-0.101885,VALID,18.9816,VALID,164,VALID,0.674023,
2004-10-28, 03:00:00,VALID,915.393,VALID,0,VALID,95.0054,VALID,-0.0849042,VALID,18.9692,VALID,117,VALID,0.609375,
2004-10-28, 03:01:00,VALID,915.41,VALID,0,VALID,94.8375,VALID,-0.0679233,VALID,18.9726,VALID,83,VALID,1.0318,
2004-10-28, 03:02:00,VALID,915.387,VALID,0,VALID,94.4255,VALID,-0.101885,VALID,19.0245,VALID,110,VALID,0.790879,
2004-10-28, 03:03:00,VALID,915.401,VALID,0,VALID,94.2857,VALID,-0.0849042,VALID,19.0628,VALID,77,VALID,1.13338,
2004-10-28, 03:04:00,VALID,915.395,VALID,0,VALID,93.9461,VALID,-0.0849042,VALID,19.0919,VALID,110,VALID,0.92024,
2004-10-28, 03:05:00,VALID,915.397,VALID,0,VALID,93.7427,VALID,-0.0509425,VALID,19.1401,VALID,103,VALID,0.896949,
2004-10-28, 03:06:00,VALID,915.389,VALID,0,VALID,93.6206,VALID,-0.0509425,VALID,19.1825,VALID,101,VALID,1.1069,
2004-10-28, 03:07:00,VALID,915.401,VALID,0,VALID,93.777,VALID,-0.0849042,VALID,19.1597,VALID,119,VALID,0.63548,
2004-10-28, 03:08:00,VALID,915.402,VALID,0,VALID,94.1509,VALID,-0.0679233,VALID,19.1078,VALID,123,VALID,0.796875,
2004-10-28, 03:09:00,VALID,915.393,VALID,0,VALID,94.5235,VALID,-0.0679233,VALID,19.0534,VALID,131,VALID,1.10938,
2004-10-28, 03:10:00,VALID,915.403,VALID,0,VALID,94.8909,VALID,-0.0849042,VALID,18.9851,VALID,87,VALID,1.09801,
2004-10-28, 03:11:00,VALID,915.403,VALID,0,VALID,95.1236,VALID,-0.0679233,VALID,18.9788,VALID,112,VALID,0.923828,
2004-10-28, 03:12:00,VALID,915.414,VALID,0,VALID,94.8757,VALID,-0.101885,VALID,18.9888,VALID,113,VALID,0.974254,
2004-10-28, 03:13:01,VALID,915.397,VALID,0,VALID,95.0105,VALID,-0.0849042,VALID,18.9597,VALID,121,VALID,1.05578,
2004-10-28, 03:14:00,VALID,915.376,VALID,0,VALID,95.3525,VALID,-0.0679233,VALID,18.9339,VALID,106,VALID,0.966546,
2004-10-28, 03:15:00,VALID,915.364,VALID,0,VALID,95.3284,VALID,-0.0169808,VALID,18.9394,VALID,120,VALID,0.875888,
2004-10-28, 03:16:00,VALID,915.351,VALID,0,VALID,95.5178,VALID,0.0849042,VALID,18.9223,VALID,122,VALID,0.70816,
2004-10-28, 03:17:00,VALID,915.331,VALID,0,VALID,95.6768,VALID,0.0169808,VALID,18.8997,VALID,60,VALID,0.872142,
2004-10-28, 03:18:00,VALID,915.337,VALID,0,VALID,95.9222,VALID,0.0509425,VALID,18.8741,VALID,85,VALID,0.972098,
2004-10-28, 03:19:00,VALID,915.353,VALID,0,VALID,96.1613,VALID,0.0169808,VALID,18.8614,VALID,92,VALID,1.1753,
2004-10-28, 03:20:00,VALID,915.338,VALID,0,VALID,96.1893,VALID,0.0509425,VALID,18.8676,VALID,75,VALID,2.00819,
2004-10-28, 03:21:00,VALID,915.335,VALID,0,VALID,95.9438,VALID,0.0339617,VALID,18.9032,VALID,73,VALID,1.1875,
2004-10-28, 03:22:00,VALID,915.327,VALID,0,VALID,95.9426,VALID,0,VALID,18.9262,VALID,103,VALID,1.20852,
2004-10-28, 03:23:00,VALID,915.328,VALID,0,VALID,95.837,VALID,0,VALID,18.9451,VALID,123,VALID,0.810014,
2004-10-28, 03:24:00,VALID,915.319,VALID,0,VALID,95.8841,VALID,0,VALID,18.9354,VALID,132,VALID,0.949219,
2004-10-28, 03:25:00,VALID,915.331,VALID,0,VALID,95.9286,VALID,0,VALID,18.9364,VALID,107,VALID,1.17057,
2004-10-28, 03:26:00,VALID,915.312,VALID,0,VALID,95.8154,VALID,0.0169808,VALID,18.9322,VALID,128,VALID,1.32168,
2004-10-28, 03:27:00,VALID,915.318,VALID,0,VALID,95.5891,VALID,0.0339617,VALID,18.9511,VALID,115,VALID,0.79794,
2004-10-28, 03:28:00,VALID,915.333,VALID,0,VALID,95.5051,VALID,0.0509425,VALID,18.9739,VALID,79,VALID,0.9,
2004-10-28, 03:29:00,VALID,915.321,VALID,0,VALID,95.4962,VALID,0.0169808,VALID,18.9876,VALID,97,VALID,0.83194,
2004-10-28, 03:30:00,VALID,915.315,VALID,0,VALID,95.4822,VALID,-0.0169808,VALID,18.9878,VALID,100,VALID,1.26823,
2004-10-28, 03:31:01,VALID,915.311,VALID,0,VALID,95.4454,VALID,-0.0849042,VALID,19.0084,VALID,103,VALID,0.8752,